map of KMMV home
KMMV - Airport
Location
City:  McMinnville, Oregon, United States
Name:McMinnville Municipal Airport
ICAO:KMMV
FAA LID:MMV

Details
Type:Airport (Airfield)
Use:Public/Civil
Latitude:4511'40"N (45.194556)
Longitude:12308'10"W (-123.136055)
Datum:WGS 1984
Elevation:162 ft (49 m)
Variation:15.17E (WMM2015 magnetic declination)
-0.13 annual change
Runways:2
Longest:5420 × 100 ft (1652 × 30.5 m), paved

Time
Time Zone:UTC-8 (DST-7)
Local Time:

Weather
METAR:KMMV 160719Z AUTO 00000KT 1SM BR VV007 03/03 A3026 RMK AO2 T00330033 $

Related Locations
Nearby:
Farthest:FTU: 10936 mi / 17600 km
Tolagnaro [Maurillac Airport (Fort Dauphin Airport)], MG

Find:

   beyond  
but within

Other Information
Maps:
NOTAMs:
Links:
Sources:

  
  • flag of United States
  • flag of Oregon
  

Sectional Chart

Flight Planning
at skyvector.com

Satellite Image

Google Maps Satellite view

 

Copyright © 2004-2018 Karl L. Swartz. All rights reserved.
The Great Circle Mapper name and logo are trademarks of the Great Circle Mapper.
All other trademarks mentioned herein belong to their respective owners.
Please see credits for attibutions and further copyright information.

  Follow gcmap on Facebook Follow gcmap on Twitter Follow gcmap on Google+ GCmap on LinkedIn

hCard Microformat

Geo Microformat